FW3928 Weather Reports


time (UTC)temp
F
wind
direction
speed
knots
gust
knots
rain 1hr
in
rain 24hr
in
rain mn
in
humidity
%
barometer
mb
20260506083038 46 204 7.0 15.6 0.00 0.00 0.00 94 1017.9
20260506081540 46 190 8.7 14.8 0.00 0.00 0.00 94 1017.9
20260506073026 47 213 8.7 17.4 0.00 0.00 0.00 92 1017.5
20260506071522 48 225 9.6 19.1 0.00 0.00 0.00 92 1017.4
20260506061516 50 235 8.7 21.7 0.00 0.00 0.00 90 1017.5
20260506044515 51 236 15.6 24.3 0.00 0.00 0.00 89 1017.4
20260506043009 50 171 11.3 20.0 0.00 0.00 0.00 90 1017.2
20260506041506 50 224 11.3 21.7 0.00 0.00 0.00 90 1017.3
20260506040004 51 203 12.2 21.7 0.00 0.00 0.00 90 1017.4
20260506034503 51 225 13.0 24.3 0.00 0.00 0.00 90 1017.2
20260506033100 51 221 11.3 25.2 0.00 0.00 0.00 90 1017.4
20260506031559 51 212 10.4 21.7 0.00 0.00 0.00 91 1017.3
20260506030057 51 243 13.9 24.3 0.00 0.00 0.00 91 1017.4
20260506024606 50 219 12.2 18.2 0.00 0.00 0.00 92 1017.5
20260506023109 49 218 8.7 16.5 0.00 0.00 0.00 92 1017.5
20260506021554 50 222 12.2 20.9 0.00 0.00 0.00 92 1017.4
20260506020055 50 203 11.3 21.7 0.00 0.00 0.00 92 1017.2
20260506014651 50 219 9.6 16.5 0.00 0.00 0.00 93 1017.1
20260506013055 49 211 10.4 20.0 0.00 0.00 0.00 94 1017.1
20260506011549 48 218 11.3 19.1 0.00 0.00 0.00 94 1016.8
20260506010049 48 206 13.0 21.7 0.00 0.00 0.00 94 1016.7
20260506004546 47 200 10.4 16.5 0.00 0.00 0.00 94 1016.5
20260506003044 47 177 7.8 14.8 0.00 0.00 0.00 94 1016.4
20260506001550 47 218 10.4 19.1 0.00 0.00 0.00 94 1016.3
20260506000041 47 239 10.4 17.4 0.00 0.00 0.00 94 1015.9
20260505234541 47 202 8.7 15.6 0.00 0.00 0.00 93 1015.8
20260505233040 48 194 7.0 18.2 0.00 0.00 0.00 92 1015.7
20260505231539 49 231 11.3 17.4 0.00 0.00 0.00 91 1015.6
20260505230058 49 218 9.6 16.5 0.00 0.00 0.00 89 1015.5
20260505224536 50 217 8.7 18.2 0.00 0.00 0.00 87 1015.0
20260505223039 52 227 9.6 18.2 0.00 0.00 0.00 85 1015.0
20260505221538 51 212 7.0 15.6 0.00 0.00 0.00 84 1014.7
20260505220048 52 197 9.6 16.5 0.00 0.00 0.00 82 1014.6
20260505214535 54 202 10.4 16.5 0.00 0.00 0.00 79 1014.5
20260505213033 56 196 9.6 18.2 0.00 0.00 0.00 75 1014.4
20260505211531 57 223 10.4 20.9 0.00 0.00 0.00 74 1014.1
20260505210032 57 181 12.2 20.0 0.00 0.00 0.00 72 1014.3
20260505204528 57 200 10.4 19.1 0.00 0.00 0.00 72 1014.4
20260505203026 57 189 10.4 18.2 0.00 0.00 0.00 70 1014.3
20260505201526 58 231 9.6 18.2 0.00 0.00 0.00 70 1014.2
20260505200034 58 200 9.6 17.4 0.00 0.00 0.00 69 1014.2
20260505194522 59 217 10.4 18.2 0.00 0.00 0.00 67 1014.0
20260505193020 61 169 10.4 18.2 0.00 0.00 0.00 63 1013.7
20260505191526 63 189 11.3 21.7 0.00 0.00 0.00 60 1013.5
20260505190019 62 221 11.3 22.6 0.00 0.00 0.00 61 1013.4
20260505184518 62 218 15.6 24.3 0.00 0.00 0.00 62 1013.4
20260505183020 63 177 11.3 20.9 0.00 0.00 0.00 62 1013.4
20260505181521 63 182 11.3 18.2 0.00 0.00 0.00 61 1013.6
20260505180012 60 223 9.6 17.4 0.00 0.00 0.00 65 1013.6
20260505174511 60 191 11.3 17.4 0.00 0.00 0.00 66 1013.5
20260505173011 59 221 7.8 16.5 0.00 0.00 0.00 70 1013.6
20260505171508 58 199 10.4 16.5 0.00 0.00 0.00 69 1013.6
20260505170005 58 183 11.3 18.2 0.00 0.00 0.00 70 1013.5
20260505164504 56 228 7.0 14.8 0.00 0.00 0.00 73 1013.6
20260505163007 55 228 7.8 14.8 0.00 0.00 0.00 74 1013.7
20260505161509 55 200 7.0 14.8 0.00 0.00 0.00 74 1013.6
20260505153059 52 172 9.6 17.4 0.00 0.00 0.00 74 1013.7
20260505151558 54 238 11.3 17.4 0.00 0.00 0.00 72 1013.5
20260505150107 55 152 7.8 16.5 0.00 0.00 0.00 73 1013.4
20260505124534 53 198 6.1 13.0 0.00 0.00 0.00 77 1013.1
20260505123034 52 239 9.6 15.6 0.00 0.00 0.00 76 1012.9
20260505121537 52 255 6.1 13.0 0.00 0.00 0.00 77 1012.8
20260505120030 51 220 6.1 11.3 0.00 0.00 0.00 80 1012.8
20260505114527 50 233 6.1 12.2 0.00 0.00 0.00 80 1012.8
20260505113024 50 233 7.8 13.0 0.00 0.00 0.00 79 1012.6
20260505111521 50 280 5.2 8.7 0.00 0.00 0.00 81 1012.5
20260505101505 43 223 3.5 7.8 0.00 0.00 0.00 89 1012.0
20260505100011 42 220 1.7 7.8 0.00 0.00 0.00 91 1011.8
20260505094503 41 245 2.6 4.3 0.00 0.00 0.00 92 1011.6
20260505093002 40 242 2.6 6.1 0.00 0.00 0.00 92 1011.5
20260505091611 40 248 1.7 5.2 0.00 0.00 0.00 92 1011.6
20260505090105 40 245 1.7 3.5 0.00 0.00 0.00 91 1011.2
20260505084558 40 245 1.7 4.3 0.00 0.00 0.00 91 1011.1